ECHOSTAR 19 (41893 NORAD) Tracking and Keplerian Element Data

This shows tracking and keplerian element data for the satellite.

Feedback or suggestion? Click here.




ElementValue
Catalog41893
NameECHOSTAR 19
Epoch Orbit1024
Epoch Day283.06394177
Epoch Year2019
RAAN193.5839
Inclination0.0219
Eccentricity0.0001515
Argument of Perigee1.616
Mean Anonmoly109.1002
Mean Motion1.00269592
Decay Rate-1.51E-06
L11 41893U 16079A 19283.06394177 -.00000151 00000-0 00000+0 0 9995
L22 41893 0.0219 193.5839 0001515 1.6160 109.1002 1.00269592 10247

Live tracking and technical data element details for ECHOSTAR 19 (NORAD 41893). ECHOSTAR 19 can be tracked NOW for your location showing map with azimuth and elevation plus other details from your city location.

Track the satellite on the map from your city or location and see movement details for azimuth, elevation, latitude, longitude, range, height, and movement on the map or in text.







IsCatalogInMostPopularTable: catalog: 41893, numindb: 311
Update: records affected: 1



GetName: 41893 ECHOSTAR 19

Hit Count: updated at: Mon, 14 Oct 2019 00:51:04 GMT